FW9692 Weather Reports


time (UTC)temp
F
wind
direction
speed
knots
gust
knots
rain 1hr
in
rain 24hr
in
rain mn
in
humidity
%
barometer
mb
20260904123113 77 236 10.4 13.0 0.00 0.00 0.00 59 999.1
20260904121601 77 243 10.4 13.9 0.00 0.00 0.00 58 998.8
20260904114554 77 265 10.4 13.0 0.00 0.00 0.00 58 998.7
20260904113059 77 277 9.6 14.8 0.00 0.00 0.00 57 998.4
20260904111552 78 248 11.3 18.2 0.00 0.00 0.00 53 998.5
20260904110056 78 254 11.3 15.6 0.00 0.00 0.00 52 998.3
20260904104559 78 254 11.3 16.5 0.00 0.00 0.00 52 998.2
20260904103058 78 250 13.0 16.5 0.00 0.00 0.00 55 998.0
20260904101607 77 250 11.3 13.9 0.00 0.00 0.00 57 997.9
20260904100059 78 245 10.4 13.9 0.00 0.00 0.00 56 997.8
20260904094551 78 251 7.0 9.6 0.00 0.00 0.00 54 997.7
20260904093104 79 254 8.7 9.6 0.00 0.00 0.00 53 997.7
20260904091539 80 275 7.8 9.6 0.00 0.00 0.00 52 997.7
20260904090047 80 262 6.1 7.8 0.00 0.00 0.00 51 997.6
20260904084535 81 259 5.2 7.0 0.00 0.00 0.00 49 997.7
20260904083030 82 268 5.2 7.8 0.00 0.00 0.00 48 997.8
20260904081530 82 267 6.1 7.8 0.00 0.00 0.00 47 997.9
20260904080029 82 286 7.0 8.7 0.00 0.00 0.00 47 998.0
20260904074530 82 275 7.8 11.3 0.00 0.00 0.00 47 998.2
20260904073040 83 244 7.8 11.3 0.00 0.00 0.00 46 998.4
20260904071600 83 248 8.7 12.2 0.00 0.00 0.00 45 998.3
20260904070056 84 189 3.5 8.7 0.00 0.00 0.00 45 998.3
20260904064543 84 242 8.7 9.6 0.00 0.00 0.00 44 998.5
20260904063048 84 254 1.7 2.6 0.00 0.00 0.00 47 998.4
20260904061553 84 74 3.5 5.2 0.00 0.00 0.00 46 998.7
20260904060041 84 29 5.2 7.0 0.00 0.00 0.00 45 998.6
20260904054557 83 310 6.1 8.7 0.00 0.00 0.00 46 998.5
20260904053002 85 282 0.9 5.2 0.00 0.00 0.00 44 998.2
20260904051508 85 83 1.7 5.2 0.00 0.00 0.00 45 998.0
20260904050101 85 138 6.1 9.6 0.00 0.00 0.00 44 998.0
20260904050003 85 140 6.1 10.4 0.00 0.00 0.00 44 998.0
20260904044610 86 160 11.3 13.9 0.00 0.00 0.00 43 997.8
20260904043023 85 170 9.6 13.9 0.00 0.00 0.00 44 997.7
20260904041527 85 185 6.1 7.8 0.00 0.00 0.00 44 997.7
20260904040033 85 156 5.2 8.7 0.00 0.00 0.00 44 997.8
20260904034546 85 227 7.0 11.3 0.00 0.00 0.00 45 997.9
20260904033016 86 133 8.7 12.2 0.00 0.00 0.00 43 997.6
20260904031516 86 105 8.7 13.0 0.00 0.00 0.00 42 997.5
20260904030028 87 104 7.8 15.6 0.00 0.00 0.00 41 997.5
20260904024528 87 103 13.0 24.3 0.00 0.00 0.00 40 997.1
20260904023034 89 95 14.8 28.7 0.00 0.00 0.00 38 996.9
20260904021520 93 140 3.5 6.1 0.00 0.00 0.00 30 996.3
20260904020026 92 237 1.7 4.3 0.00 0.00 0.00 30 996.1
20260904014532 92 267 5.2 7.8 0.00 0.00 0.00 31 995.9
20260904013049 92 252 4.3 7.0 0.00 0.00 0.00 32 995.8
20260904011606 92 265 2.6 3.5 0.00 0.00 0.00 33 995.6
20260904010059 92 317 2.6 5.2 0.00 0.00 0.00 32 995.6
20260904004548 93 296 3.5 7.8 0.00 0.00 0.00 33 995.5
20260904003054 94 268 6.1 10.4 0.00 0.00 0.00 31 995.6
20260904001531 95 344 4.3 7.8 0.00 0.00 0.00 29 995.5
20260904000039 96 341 6.1 8.7 0.00 0.00 0.00 29 995.3
20260903234539 97 18 3.5 8.7 0.00 0.00 0.00 27 995.3
20260903231559 97 311 7.8 12.2 0.00 0.00 0.00 28 995.5
20260903230057 97 146 6.1 13.9 0.00 0.00 0.00 28 995.4
20260903224558 96 182 9.6 13.0 0.00 0.00 0.00 28 995.6
20260903223035 94 167 16.5 21.7 0.00 0.00 0.00 30 995.7
20260903221508 94 149 21.7 30.4 0.00 0.00 0.00 31 995.6
20260903220009 97 212 7.8 13.0 0.00 0.00 0.00 27 995.7
20260903214508 96 279 10.4 15.6 0.00 0.00 0.00 28 995.6
20260903213033 94 306 13.9 18.2 0.00 0.00 0.00 30 995.8
20260903211519 94 296 15.6 23.5 0.00 0.00 0.00 30 996.1
20260903210014 97 304 9.6 21.7 0.00 0.00 0.00 28 996.1
20260903204519 98 205 8.7 14.8 0.00 0.00 0.00 25 996.1
20260903203011 97 221 6.1 11.3 0.00 0.00 0.00 25 996.2
20260903201502 97 334 10.4 12.2 0.00 0.00 0.00 27 996.3
20260903200101 98 232 5.2 13.0 0.00 0.00 0.00 26 996.6
20260903194559 98 146 6.1 10.4 0.00 0.00 0.00 25 996.8
20260903191600 97 252 9.6 12.2 0.00 0.00 0.00 27 997.3
20260903190051 97 46 3.5 8.7 0.00 0.00 0.00 27 997.7
20260903184551 96 211 5.2 17.4 0.00 0.00 0.00 28 998.0
20260903181556 95 324 4.3 16.5 0.00 0.00 0.00 29 998.7
20260903180056 95 234 7.0 15.6 0.00 0.00 0.00 30 999.1
20260903174540 94 281 7.0 13.0 0.00 0.00 0.00 30 999.1
20260903171558 93 241 12.2 17.4 0.00 0.00 0.00 31 999.4
20260903170055 93 237 9.6 17.4 0.00 0.00 0.00 32 999.5
20260903164551 92 262 11.3 20.0 0.00 0.00 0.00 32 999.5
20260903161504 91 270 9.6 18.2 0.00 0.00 0.00 35 999.6
20260903160101 90 233 12.2 16.5 0.00 0.00 0.00 36 999.6
20260903154600 89 225 9.6 15.6 0.00 0.00 0.00 37 999.6
20260903151551 88 238 10.4 16.5 0.00 0.00 0.00 38 999.7
20260903150049 87 247 13.0 16.5 0.00 0.00 0.00 39 999.7
20260903144605 86 254 10.4 13.9 0.00 0.00 0.00 40 999.9
20260903141548 85 238 9.6 13.9 0.00 0.00 0.00 42 999.9
20260903140045 83 234 10.4 13.0 0.00 0.00 0.00 44 999.9
20260903134536 82 238 11.3 13.0 0.00 0.00 0.00 46 999.9
20260903131534 79 255 10.4 13.0 0.00 0.00 0.00 49 999.6
20260903130032 79 252 10.4 12.2 0.00 0.00 0.00 48 999.6
20260903124530 80 254 12.2 14.8 0.00 0.00 0.00 48 999.3